M0JGD Weather Reports


time (UTC)temp
F
wind
direction
speed
knots
gust
knots
rain 1hr
in
rain 24hr
in
rain mn
in
humidity
%
barometer
mb
20260506071557 48 0 0.0 3.5 0.00 0.00 0.00 77 1010.6
20260506061559 47 85 0.0 3.5 0.00 0.00 0.00 80 1010.1
20260506044554 47 0 0.0 0.0 0.00 0.00 0.00 82 1009.9
20260506043053 47 0 0.0 0.0 0.00 0.00 0.00 81 1009.7
20260506041557 48 0 0.0 0.0 0.00 0.00 0.00 80 1009.8
20260506040057 48 0 0.0 0.0 0.00 0.00 0.00 80 1009.7
20260506034557 48 0 0.0 0.0 0.00 0.00 0.00 79 1009.6
20260506033109 48 0 0.0 0.0 0.00 0.00 0.00 79 1009.7
20260506031553 48 0 0.0 0.0 0.00 0.00 0.00 79 1009.7
20260506030100 48 0 0.0 0.0 0.00 0.00 0.00 78 1009.7
20260506024614 49 0 0.0 0.0 0.00 0.00 0.00 78 1009.8
20260506023100 49 0 0.0 0.0 0.00 0.00 0.00 78 1009.7
20260506021559 49 0 0.0 0.0 0.00 0.00 0.00 77 1009.8
20260506020053 49 0 0.0 1.7 0.00 0.00 0.00 76 1010.0
20260506014557 50 92 0.9 1.7 0.00 0.00 0.00 76 1009.9
20260506013100 50 84 0.0 1.7 0.00 0.00 0.00 76 1009.9
20260506011621 50 105 0.0 0.0 0.00 0.00 0.00 77 1009.8
20260506010110 50 107 0.9 3.5 0.00 0.00 0.00 78 1009.8
20260506004557 50 0 0.0 0.0 0.00 0.00 0.00 78 1009.9
20260506003058 50 0 0.0 1.7 0.00 0.00 0.00 77 1009.9
20260506001558 50 0 0.0 0.0 0.00 0.00 0.00 77 1010.0
20260506000101 51 0 0.0 0.0 0.00 0.00 0.00 76 1010.2
20260505234555 51 0 0.0 0.0 0.00 0.00 0.00 74 1010.1
20260505233053 51 0 0.0 0.0 0.00 0.00 0.00 72 1010.0
20260505231555 52 0 0.0 0.0 0.00 0.00 0.00 71 1009.9
20260505230100 52 0 0.0 0.0 0.00 0.00 0.00 68 1010.2
20260505224556 52 0 0.0 0.0 0.00 0.00 0.00 65 1010.2
20260505223055 53 0 0.0 0.0 0.00 0.00 0.00 64 1010.1
20260505221604 53 0 0.0 1.7 0.00 0.00 0.00 64 1010.1
20260505220107 53 86 0.0 1.7 0.00 0.00 0.00 64 1010.2
20260505214555 54 109 0.9 3.5 0.00 0.00 0.00 65 1010.2
20260505213055 54 0 0.0 3.5 0.00 0.00 0.00 66 1010.1
20260505211557 55 103 0.9 2.6 0.00 0.00 0.00 66 1009.9
20260505210057 55 0 0.0 0.0 0.00 0.00 0.00 64 1009.7
20260505204612 55 0 0.0 0.0 0.00 0.00 0.00 63 1009.6
20260505203105 55 0 0.0 0.0 0.00 0.00 0.00 63 1009.6
20260505201601 56 0 0.0 0.0 0.00 0.00 0.00 63 1009.5
20260505194603 56 0 0.0 0.0 0.00 0.00 0.00 59 1009.2
20260505193103 56 0 0.0 0.0 0.00 0.00 0.00 60 1009.1
20260505191556 57 0 0.0 0.0 0.00 0.00 0.00 58 1009.0
20260505190058 57 0 0.0 0.0 0.00 0.00 0.00 57 1009.1
20260505184605 58 0 0.0 0.0 0.00 0.00 0.00 55 1009.0
20260505183058 59 0 0.0 0.0 0.00 0.00 0.00 54 1008.9
20260505181612 59 0 0.0 0.0 0.00 0.00 0.00 52 1008.8
20260505180059 59 0 0.0 0.0 0.00 0.00 0.00 51 1008.9
20260505174556 60 0 0.0 0.0 0.00 0.00 0.00 50 1008.9
20260505173055 60 0 0.0 0.0 0.00 0.00 0.00 50 1009.0
20260505171556 60 0 0.0 0.0 0.00 0.00 0.00 50 1008.9
20260505170056 60 0 0.0 0.0 0.00 0.00 0.00 49 1009.0
20260505164603 60 0 0.0 1.7 0.00 0.00 0.00 49 1009.0
20260505163055 61 98 0.0 1.7 0.00 0.00 0.00 50 1009.1
20260505161559 61 0 0.0 1.7 0.00 0.00 0.00 49 1009.0
20260505153120 61 99 0.0 2.6 0.00 0.00 0.00 50 1009.1
20260505151600 61 0 0.0 0.9 0.00 0.00 0.00 50 1009.0
20260505140104 64 80 0.0 2.6 0.00 0.00 0.00 45 1009.2
20260505124609 65 0 0.9 3.5 0.00 0.00 0.00 51 1009.5
20260505123102 64 90 0.0 2.6 0.00 0.00 0.00 53 1009.5
20260505121611 62 69 0.0 2.6 0.00 0.00 0.00 55 1009.6
20260505120107 60 94 0.0 3.5 0.00 0.00 0.00 59 1009.7
20260505114557 61 64 0.0 1.7 0.00 0.00 0.00 60 1009.8
20260505113113 60 0 0.0 2.6 0.00 0.00 0.00 60 1009.7
20260505111552 60 84 0.0 2.6 0.00 0.00 0.00 62 1009.7
20260505101557 59 5 0.0 2.6 0.00 0.00 0.00 63 1009.9
20260505100057 59 0 0.9 3.5 0.00 0.00 0.00 65 1010.0
20260505094554 59 86 0.9 5.2 0.00 0.00 0.00 63 1010.0
20260505093105 58 98 0.9 8.7 0.00 0.00 0.00 63 1010.1
20260505091554 58 0 0.0 2.6 0.00 0.00 0.00 66 1010.3
20260505090056 57 0 1.7 5.2 0.00 0.00 0.00 66 1010.3
20260505084556 57 0 0.9 3.5 0.00 0.00 0.00 67 1010.3
20260505083104 56 78 0.9 3.5 0.00 0.00 0.00 68 1010.3
20260505081559 56 59 0.0 2.6 0.00 0.00 0.00 70 1010.3
20260505080108 55 0 0.9 4.3 0.00 0.00 0.00 72 1010.4
20260505074554 55 59 0.9 2.6 0.00 0.00 0.00 78 1010.4
20260505073100 54 0 0.0 2.6 0.00 0.00 0.00 81 1010.4